Voltar ao catálogo

THORAD AGENA D DEB

AtivoSSO
NORAD 4854·DEBRIS·🇺🇸 United States

Lançado Apr 8, 1970 de Vandenberg Space Force Base

Loading…

Próximas Passagens (próximas 24 horas)

TLE

AtualizadoSource: Space-Track

Época: Sep 13, 2026, 11:17 UTC

1 04854U 70025EJ  26256.47064992  .00000180  00000-0  31150-3 0  9999
2 04854  99.3540  86.9738 0017087 314.9616  74.4792 13.57113803784281

Acompanhe THORAD AGENA D DEB em tempo real com AllMySat

Download on the App Store